TimeMST,TemperatureF,Dew PointF,Humidity,Sea Level PressureIn,VisibilityMPH,Wind Direction,Wind SpeedMPH,Gust SpeedMPH,PrecipitationIn,Events,Conditions,WindDirDegrees,DateUTC
12:15 AM,33.8,19.4,56,30.27,10.0,SE,6.9,-,N/A,,Clear,130,2013-11-09 07:15:00
12:35 AM,33.8,19.4,56,30.27,10.0,ESE,5.8,-,N/A,,Clear,120,2013-11-09 07:35:00
12:55 AM,33.8,17.6,52,30.27,10.0,ESE,4.6,-,N/A,,Clear,120,2013-11-09 07:55:00
1:15 AM,33.8,17.6,52,30.27,10.0,ESE,5.8,-,N/A,,Clear,120,2013-11-09 08:15:00
1:35 AM,32.0,17.6,55,30.27,10.0,ESE,5.8,-,N/A,,Clear,110,2013-11-09 08:35:00
1:55 AM,32.0,17.6,55,30.27,10.0,East,4.6,-,N/A,,Clear,100,2013-11-09 08:55:00
2:15 AM,32.0,19.4,60,30.27,10.0,Calm,Calm,-,N/A,,Clear,0,2013-11-09 09:15:00
2:35 AM,32.0,17.6,55,30.27,10.0,ESE,4.6,-,N/A,,Clear,120,2013-11-09 09:35:00
2:55 AM,32.0,19.4,60,30.27,10.0,SE,6.9,-,N/A,,Clear,130,2013-11-09 09:55:00
3:15 AM,32.0,19.4,60,30.27,10.0,SE,6.9,-,N/A,,Clear,130,2013-11-09 10:15:00
3:35 AM,32.0,19.4,60,30.27,10.0,SE,5.8,-,N/A,,Clear,130,2013-11-09 10:35:00
3:55 AM,32.0,19.4,60,30.27,10.0,SE,4.6,-,N/A,,Clear,130,2013-11-09 10:55:00
4:15 AM,32.0,19.4,60,30.27,10.0,ESE,6.9,-,N/A,,Clear,120,2013-11-09 11:15:00
4:35 AM,32.0,17.6,55,30.28,10.0,SE,8.1,-,N/A,,Clear,130,2013-11-09 11:35:00
4:55 AM,32.0,19.4,60,30.29,10.0,ESE,4.6,-,N/A,,Clear,120,2013-11-09 11:55:00
5:15 AM,32.0,17.6,55,30.29,10.0,ESE,5.8,-,N/A,,Clear,120,2013-11-09 12:15:00
5:35 AM,32.0,17.6,55,30.29,10.0,ESE,4.6,-,N/A,,Clear,120,2013-11-09 12:35:00
5:55 AM,32.0,19.4,60,30.29,10.0,ESE,5.8,-,N/A,,Clear,120,2013-11-09 12:55:00
6:15 AM,32.0,19.4,60,30.30,10.0,ESE,5.8,-,N/A,,Clear,120,2013-11-09 13:15:00
6:35 AM,32.0,17.6,55,30.30,10.0,ESE,5.8,-,N/A,,Clear,110,2013-11-09 13:35:00
6:55 AM,32.0,17.6,55,30.31,10.0,East,3.5,-,N/A,,Clear,90,2013-11-09 13:55:00
7:15 AM,32.0,17.6,55,30.31,10.0,ESE,5.8,-,N/A,,Clear,120,2013-11-09 14:15:00
7:35 AM,32.0,19.4,60,30.31,10.0,SE,4.6,-,N/A,,Clear,140,2013-11-09 14:35:00
7:55 AM,33.8,19.4,56,30.32,10.0,ESE,4.6,-,N/A,,Clear,120,2013-11-09 14:55:00
8:15 AM,33.8,19.4,56,30.33,10.0,ESE,4.6,-,N/A,,Clear,110,2013-11-09 15:15:00
8:35 AM,35.6,21.2,56,30.33,10.0,ESE,4.6,-,N/A,,Clear,120,2013-11-09 15:35:00
8:55 AM,37.4,21.2,52,30.33,10.0,SE,4.6,-,N/A,,Clear,130,2013-11-09 15:55:00
9:15 AM,41.0,19.4,42,30.33,10.0,Calm,Calm,-,N/A,,Clear,0,2013-11-09 16:15:00
9:35 AM,42.8,21.2,42,30.33,10.0,ESE,3.5,-,N/A,,Clear,120,2013-11-09 16:35:00
9:55 AM,44.6,19.4,37,30.33,10.0,Calm,Calm,-,N/A,,Clear,0,2013-11-09 16:55:00
10:15 AM,44.6,19.4,37,30.33,10.0,Calm,Calm,-,N/A,,Clear,0,2013-11-09 17:15:00
10:35 AM,44.6,19.4,37,30.33,10.0,Calm,Calm,-,N/A,,Clear,0,2013-11-09 17:35:00
10:55 AM,48.2,17.6,30,30.33,10.0,Calm,Calm,-,N/A,,Clear,0,2013-11-09 17:55:00
11:15 AM,50.0,17.6,28,30.33,10.0,West,4.6,-,N/A,,Clear,260,2013-11-09 18:15:00
11:35 AM,51.8,17.6,26,30.32,10.0,West,8.1,-,N/A,,Clear,270,2013-11-09 18:35:00
11:55 AM,51.8,17.6,26,30.32,10.0,West,8.1,-,N/A,,Clear,260,2013-11-09 18:55:00
12:15 PM,50.0,17.6,28,30.31,10.0,West,8.1,-,N/A,,Clear,260,2013-11-09 19:15:00
12:35 PM,51.8,17.6,26,30.30,10.0,WSW,9.2,-,N/A,,Clear,250,2013-11-09 19:35:00
12:55 PM,50.0,17.6,28,30.30,10.0,West,12.7,-,N/A,,Clear,260,2013-11-09 19:55:00
1:15 PM,51.8,17.6,26,30.30,10.0,West,11.5,-,N/A,,Clear,260,2013-11-09 20:15:00
1:35 PM,51.8,19.4,28,30.30,10.0,West,11.5,-,N/A,,Clear,260,2013-11-09 20:35:00
1:55 PM,50.0,17.6,28,30.30,10.0,West,13.8,-,N/A,,Clear,260,2013-11-09 20:55:00
2:15 PM,51.8,19.4,28,30.30,10.0,West,13.8,-,N/A,,Clear,260,2013-11-09 21:15:00
2:35 PM,51.8,19.4,28,30.30,10.0,West,15.0,18.4,N/A,,Clear,260,2013-11-09 21:35:00
2:55 PM,50.0,19.4,30,30.30,10.0,West,13.8,-,N/A,,Clear,260,2013-11-09 21:55:00
3:15 PM,50.0,19.4,30,30.31,10.0,West,16.1,-,N/A,,Clear,260,2013-11-09 22:15:00
3:35 PM,50.0,19.4,30,30.31,10.0,West,15.0,-,N/A,,Clear,260,2013-11-09 22:35:00
3:55 PM,48.2,19.4,32,30.31,10.0,WSW,11.5,-,N/A,,Clear,250,2013-11-09 22:55:00
4:15 PM,48.2,19.4,32,30.32,10.0,WSW,9.2,-,N/A,,Clear,250,2013-11-09 23:15:00
4:35 PM,46.4,19.4,34,30.32,10.0,West,10.4,-,N/A,,Clear,260,2013-11-09 23:35:00
4:55 PM,44.6,19.4,37,30.33,10.0,WSW,5.8,-,N/A,,Clear,240,2013-11-09 23:55:00
5:15 PM,44.6,19.4,37,30.33,10.0,SW,5.8,-,N/A,,Clear,230,2013-11-10 00:15:00
5:35 PM,42.8,21.2,42,30.34,10.0,Calm,Calm,-,N/A,,Clear,0,2013-11-10 00:35:00
5:55 PM,41.0,23.0,49,30.35,10.0,Calm,Calm,-,N/A,,Clear,0,2013-11-10 00:55:00
6:15 PM,41.0,21.2,45,30.35,10.0,East,6.9,-,N/A,,Clear,90,2013-11-10 01:15:00
6:35 PM,39.2,23.0,52,30.36,10.0,ESE,5.8,-,N/A,,Clear,110,2013-11-10 01:35:00
7:35 PM,37.4,23.0,56,30.37,10.0,ESE,5.8,-,N/A,,Clear,110,2013-11-10 02:35:00
7:55 PM,35.6,23.0,60,30.37,10.0,SE,6.9,-,N/A,,Clear,140,2013-11-10 02:55:00
8:15 PM,35.6,23.0,60,30.37,10.0,ESE,9.2,-,N/A,,Clear,120,2013-11-10 03:15:00
8:35 PM,35.6,23.0,60,30.37,10.0,SE,9.2,-,N/A,,Clear,130,2013-11-10 03:35:00
8:55 PM,35.6,21.2,56,30.37,10.0,SE,9.2,-,N/A,,Clear,140,2013-11-10 03:55:00
9:15 PM,35.6,21.2,56,30.38,10.0,SE,6.9,-,N/A,,Clear,130,2013-11-10 04:15:00
9:35 PM,35.6,21.2,56,30.39,10.0,ESE,5.8,-,N/A,,Clear,110,2013-11-10 04:35:00
9:55 PM,33.8,19.4,56,30.39,10.0,ESE,6.9,-,N/A,,Clear,120,2013-11-10 04:55:00
10:15 PM,33.8,19.4,56,30.39,10.0,SE,5.8,-,N/A,,Clear,140,2013-11-10 05:15:00
10:35 PM,33.8,21.2,60,30.39,10.0,SE,5.8,-,N/A,,Clear,140,2013-11-10 05:35:00
10:55 PM,33.8,21.2,60,30.39,10.0,SE,5.8,-,N/A,,Clear,140,2013-11-10 05:55:00
11:15 PM,33.8,19.4,56,30.39,10.0,ESE,5.8,-,N/A,,Clear,120,2013-11-10 06:15:00
11:35 PM,33.8,19.4,56,30.39,10.0,SE,5.8,-,N/A,,Clear,130,2013-11-10 06:35:00
11:55 PM,33.8,17.6,52,30.39,10.0,East,5.8,-,N/A,,Clear,100,2013-11-10 06:55:00